EW0600 Weather Reports


Display with metric or nautical units.
time (UTC)temp
F
wind
direction
speed
MPH
gust
MPH
rain 1hr
in
rain 24hr
in
rain mn
in
humidity
%
barometer
mb
20260510211603 57 301 6.0 25.0 0.00 0.00 0.00 38 1017.2
20260510210426 58 323 12.0 22.0 0.00 0.00 0.00 37 1017.1
20260510210002 57 298 12.0 20.0 0.00 0.00 0.00 36 1017.2
20260510205406 59 84 13.0 20.0 0.00 0.00 0.00 38 1017.2
20260510204602 58 297 13.0 27.0 0.00 0.00 0.00 35 1017.3
20260510204345 58 312 14.0 28.0 0.00 0.00 0.00 37 1017.2
20260510203406 58 337 11.0 29.0 0.00 0.00 0.00 38 1017.2
20260510203003 57 49 10.0 30.0 0.00 0.00 0.00 38 1017.3
20260510202421 58 308 14.0 29.0 0.00 0.00 0.00 40 1017.3
20260510201602 58 283 13.0 21.0 0.00 0.00 0.00 38 1017.3
20260510201347 57 287 8.0 23.0 0.00 0.00 0.00 40 1017.3
20260510200355 57 4 15.0 23.0 0.00 0.00 0.00 39 1017.4
20260510200011 57 331 18.0 24.0 0.00 0.00 0.00 39 1017.3
20260510195327 58 288 15.0 21.0 0.00 0.00 0.00 38 1017.2
20260510194612 57 315 15.0 23.0 0.00 0.00 0.00 39 1017.4
20260510194332 57 330 15.0 22.0 0.00 0.00 0.00 38 1017.3
20260510193006 57 300 11.0 24.0 0.00 0.00 0.00 40 1017.4
20260510192153 57 290 16.0 25.0 0.00 0.00 0.00 42 1017.4
20260510191504 56 342 18.0 26.0 0.00 0.00 0.00 41 1017.5
20260510191208 57 338 12.0 21.0 0.00 0.00 0.00 43 1017.4
20260510190150 56 330 9.0 25.0 0.00 0.00 0.00 43 1017.4
20260510190003 56 240 7.0 20.0 0.00 0.00 0.00 43 1017.5
20260510184605 56 335 18.0 26.0 0.00 0.00 0.00 44 1017.5
20260510184019 55 336 11.0 21.0 0.00 0.00 0.00 45 1017.5
20260510183003 56 354 15.0 22.0 0.00 0.00 0.00 45 1017.5
20260510182957 56 320 10.0 19.0 0.00 0.00 0.00 45 1017.5
20260510182003 56 318 8.0 19.0 0.00 0.00 0.00 47 1017.5
20260510181603 55 332 10.0 20.0 0.00 0.00 0.00 48 1017.6
20260510180928 56 330 11.0 19.0 0.00 0.00 0.00 47 1017.6
20260510180005 55 2 8.0 17.0 0.00 0.00 0.00 51 1017.6
20260510175940 56 328 7.0 16.0 0.00 0.00 0.00 51 1017.6
20260510174931 55 336 8.0 17.0 0.00 0.00 0.00 50 1017.6
20260510174603 54 307 10.0 18.0 0.00 0.00 0.00 51 1017.6
20260510173927 54 334 7.0 18.0 0.00 0.00 0.00 51 1017.6
20260510173004 53 322 14.0 19.0 0.00 0.00 0.00 49 1017.8
20260510171750 55 325 7.0 14.0 0.00 0.00 0.00 49 1017.6
20260510171605 55 339 11.0 15.0 0.00 0.00 0.00 50 1017.5
20260510170715 55 42 6.0 18.0 0.00 0.00 0.00 49 1017.5
20260510170004 53 14 8.0 19.0 0.00 0.00 0.00 51 1017.6
20260510165735 53 320 6.0 18.0 0.00 0.00 0.00 51 1017.6
20260510164736 53 36 10.0 16.0 0.00 0.00 0.00 49 1017.7
20260510164602 53 328 9.0 17.0 0.00 0.00 0.00 51 1017.8
20260510163700 54 342 5.0 16.0 0.00 0.00 0.00 49 1017.6
20260510163003 53 339 6.0 16.0 0.00 0.00 0.00 50 1017.8
20260510162639 54 6 6.0 15.0 0.00 0.00 0.00 50 1017.6
20260510161631 53 63 4.0 14.0 0.00 0.00 0.00 50 1017.6
20260510161603 53 65 6.0 13.0 0.00 0.00 0.00 51 1017.6
20260510160624 53 352 6.0 14.0 0.00 0.00 0.00 52 1017.6
20260510160007 52 26 8.0 14.0 0.00 0.00 0.00 51 1017.5
20260510155631 52 330 6.0 12.0 0.00 0.00 0.00 52 1017.5
20260510154648 53 13 4.0 16.0 0.00 0.00 0.00 51 1017.5
20260510154603 52 42 4.0 13.0 0.00 0.00 0.00 51 1017.5
20260510153654 52 41 6.0 16.0 0.00 0.00 0.00 52 1017.5
20260510153003 51 337 9.0 17.0 0.00 0.00 0.00 52 1017.4
20260510152644 52 340 8.0 16.0 0.00 0.00 0.00 51 1017.3
20260510151648 51 322 8.0 16.0 0.00 0.00 0.00 51 1017.3
20260510151610 51 322 8.0 17.0 0.00 0.00 0.00 52 1017.4
20260510150708 52 308 4.0 12.0 0.00 0.00 0.00 53 1017.3
20260510150002 51 46 3.0 12.0 0.00 0.00 0.00 53 1017.3
20260510145715 51 11 6.0 11.0 0.00 0.00 0.00 54 1017.3
20260510144647 50 341 6.0 11.0 0.00 0.00 0.00 55 1017.4
20260510144603 50 341 7.0 12.0 0.00 0.00 0.00 54 1017.4
20260510143618 51 61 4.0 14.0 0.00 0.00 0.00 54 1017.4
20260510143103 50 53 4.0 11.0 0.00 0.00 0.00 55 1017.4
20260510142639 50 310 4.0 14.0 0.00 0.00 0.00 55 1017.3
20260510141639 50 331 3.0 8.0 0.00 0.00 0.00 55 1017.2
20260510141503 50 7 3.0 9.0 0.00 0.00 0.00 57 1017.3
20260510140639 50 1 2.0 7.0 0.00 0.00 0.00 56 1017.1
20260510134502 49 65 3.0 8.0 0.00 0.00 0.00 59 1017.1
20260510134433 49 49 2.0 7.0 0.00 0.00 0.00 59 1017.1
20260510133403 48 64 1.0 4.0 0.00 0.00 0.00 62 1017.1
20260510133103 47 62 1.0 5.0 0.00 0.00 0.00 63 1017.1
20260510132409 47 43 2.0 6.0 0.00 0.00 0.00 64 1017.0
20260510131503 46 41 2.0 7.0 0.00 0.00 0.00 64 1016.9
20260510125105 44 330 1.0 3.0 0.00 0.00 0.00 70 1016.8
20260510124507 43 322 1.0 4.0 0.00 0.00 0.00 71 1016.9
20260510124057 43 314 1.0 3.0 0.00 0.00 0.00 71 1016.8
20260510123117 41 274 1.0 2.0 0.00 0.00 0.00 72 1016.7
20260510123037 42 274 0.0 1.0 0.00 0.00 0.00 72 1016.6
20260510121503 40 262 0.0 1.0 0.00 0.00 0.00 72 1016.5
20260510120929 40 262 0.0 0.0 0.00 0.00 0.00 72 1016.3
20260510115920 39 262 0.0 0.0 0.00 0.00 0.00 72 1016.2
20260510114925 39 262 0.0 0.0 0.00 0.00 0.00 72 1016.0
20260510114503 38 233 0.0 1.0 0.00 0.00 0.00 73 1016.0
20260510113102 37 233 0.0 1.0 0.00 0.00 0.00 75 1015.8
20260510111606 38 179 0.0 0.0 0.00 0.00 0.00 75 1015.6
20260510111503 37 66 0.0 2.0 0.00 0.00 0.00 75 1015.7
20260510110546 38 225 0.0 0.0 0.00 0.00 0.00 74 1015.5
20260510105511 38 225 0.0 0.0 0.00 0.00 0.00 73 1015.4
20260510104511 38 124 0.0 0.0 0.00 0.00 0.00 74 1015.2
20260510104509 37 124 1.0 2.0 0.00 0.00 0.00 74 1015.2
20260510103459 39 226 0.0 1.0 0.00 0.00 0.00 71 1015.1
20260510103109 38 226 0.0 1.0 0.00 0.00 0.00 72 1015.1
20260510102432 38 226 0.0 0.0 0.00 0.00 0.00 72 1015.0
20260510101502 38 226 0.0 1.0 0.00 0.00 0.00 73 1014.9
20260510100255 40 208 1.0 2.0 0.00 0.00 0.00 70 1014.5
20260510100105 39 212 1.0 3.0 0.00 0.00 0.00 69 1014.6
20260510095317 39 205 1.0 2.0 0.00 0.00 0.00 69 1014.5
20260510094503 38 200 2.0 3.0 0.00 0.00 0.00 71 1014.5
20260510094252 39 206 1.0 2.0 0.00 0.00 0.00 71 1014.5
20260510093228 39 213 1.0 2.0 0.00 0.00 0.00 73 1014.3
20260510093105 38 213 2.0 3.0 0.00 0.00 0.00 74 1014.3
20260510092230 38 215 0.0 1.0 0.00 0.00 0.00 76 1014.2
20260510091504 38 231 1.0 2.0 0.00 0.00 0.00 70 1014.3
20260510091236 39 231 1.0 1.0 0.00 0.00 0.00 71 1014.2
20260510090246 40 231 0.0 1.0 0.00 0.00 0.00 70 1014.0
20260510090105 39 231 1.0 2.0 0.00 0.00 0.00 70 1014.1
20260510085259 40 231 0.0 1.0 0.00 0.00 0.00 70 1013.9
20260510084503 40 204 1.0 2.0 0.00 0.00 0.00 69 1013.9
20260510084239 40 198 0.0 1.0 0.00 0.00 0.00 69 1013.7
20260510083225 40 212 1.0 1.0 0.00 0.00 0.00 68 1013.7
20260510083103 40 212 2.0 2.0 0.00 0.00 0.00 68 1013.6
20260510082228 40 203 1.0 2.0 0.00 0.00 0.00 69 1013.5
20260510081510 39 205 1.0 3.0 0.00 0.00 0.00 72 1013.4
20260510081250 40 203 2.0 2.0 0.00 0.00 0.00 72 1013.4
20260510080107 39 226 1.0 1.0 0.00 0.00 0.00 74 1013.4
20260510075206 40 221 0.0 2.0 0.00 0.00 0.00 68 1013.3
20260510074502 39 221 2.0 3.0 0.00 0.00 0.00 75 1013.3
20260510074138 40 230 1.0 1.0 0.00 0.00 0.00 74 1013.2
20260510073135 41 222 1.0 1.0 0.00 0.00 0.00 68 1013.2
20260510073117 40 222 1.0 2.0 0.00 0.00 0.00 66 1013.2
20260510072157 41 222 0.0 1.0 0.00 0.00 0.00 64 1013.3
20260510071501 40 219 0.0 1.0 0.00 0.00 0.00 64 1013.2
20260510071202 41 219 0.0 0.0 0.00 0.00 0.00 64 1013.2
20260510070213 42 219 0.0 0.0 0.00 0.00 0.00 63 1013.3
20260510065220 41 219 0.0 0.0 0.00 0.00 0.00 65 1013.3
20260510064502 42 216 1.0 1.0 0.00 0.00 0.00 65 1013.2
20260510063115 43 216 0.0 0.0 0.00 0.00 0.00 63 1013.0
20260510063106 43 217 0.0 3.0 0.00 0.00 0.00 63 1013.1
20260510062041 43 249 1.0 2.0 0.00 0.00 0.00 61 1013.0
20260510061502 43 250 2.0 2.0 0.00 0.00 0.00 60 1013.0
20260510061056 43 250 0.0 1.0 0.00 0.00 0.00 60 1013.0
20260510060101 42 250 0.0 1.0 0.00 0.00 0.00 63 1013.1
20260510055117 42 250 1.0 1.0 0.00 0.00 0.00 64 1013.0
20260510054503 42 250 1.0 2.0 0.00 0.00 0.00 65 1013.0
20260510054040 42 250 1.0 2.0 0.00 0.00 0.00 62 1012.9
20260510053104 44 240 3.0 3.0 0.00 0.00 0.00 60 1012.8
20260510053012 45 230 2.0 2.0 0.00 0.00 0.00 59 1012.7
20260510051959 45 316 0.0 1.0 0.00 0.00 0.00 56 1012.6
20260510051511 45 328 0.0 1.0 0.00 0.00 0.00 56 1012.6
20260510050947 47 328 0.0 2.0 0.00 0.00 0.00 54 1012.6
20260510050002 47 328 2.0 4.0 0.00 0.00 0.00 55 1012.6
20260510045001 47 330 3.0 5.0 0.00 0.00 0.00 55 1012.6
20260510044508 46 330 4.0 6.0 0.00 0.00 0.00 55 1012.7
20260510044013 47 325 4.0 8.0 0.00 0.00 0.00 54 1012.6
20260510043104 47 322 5.0 9.0 0.00 0.00 0.00 53 1012.6
20260510043033 47 321 4.0 8.0 0.00 0.00 0.00 53 1012.5
20260510042022 47 328 4.0 7.0 0.00 0.00 0.00 53 1012.4
20260510041502 47 315 4.0 6.0 0.00 0.00 0.00 53 1012.4
20260510040958 47 314 4.0 6.0 0.00 0.00 0.00 53 1012.3
20260510040004 48 300 3.0 6.0 0.00 0.00 0.00 51 1012.2
20260510035014 49 304 4.0 7.0 0.00 0.00 0.00 50 1012.0
20260510034503 49 303 5.0 7.0 0.00 0.00 0.00 49 1012.0
20260510034006 50 295 5.0 7.0 0.00 0.00 0.00 49 1011.9
20260510033122 49 294 6.0 8.0 0.00 0.00 0.00 49 1011.9
20260510032959 50 303 4.0 7.0 0.00 0.00 0.00 49 1011.8
20260510032016 50 297 4.0 7.0 0.00 0.00 0.00 49 1011.7
20260510031503 49 297 4.0 6.0 0.00 0.00 0.00 49 1011.7
20260510024504 51 308 8.0 10.0 0.00 0.00 0.00 47 1011.2
20260510023439 50 301 4.0 6.0 0.00 0.00 0.00 47 1011.0
20260510023103 50 302 3.0 8.0 0.00 0.00 0.00 48 1010.9
20260510021507 52 298 7.0 11.0 0.00 0.00 0.00 44 1010.5
20260510020126 53 311 6.0 10.0 0.00 0.00 0.00 43 1010.1
20260510020110 52 310 5.0 10.0 0.00 0.00 0.00 43 1010.1
20260510015123 53 319 7.0 10.0 0.00 0.00 0.00 43 1009.8
20260510014502 53 316 8.0 11.0 0.00 0.00 0.00 42 1009.7
20260510014116 54 316 8.0 12.0 0.00 0.00 0.00 42 1009.6
20260510013106 53 308 10.0 13.0 0.00 0.00 0.00 41 1009.6
20260510011505 55 320 15.0 19.0 0.00 0.00 0.00 39 1009.2
20260510010752 55 322 12.0 20.0 0.00 0.00 0.00 39 1009.1
20260510005734 56 326 14.0 20.0 0.00 0.00 0.00 37 1009.0
20260510004728 57 321 13.0 23.0 0.00 0.00 0.00 38 1008.8
20260510004502 56 330 13.0 20.0 0.00 0.00 0.00 38 1008.7
20260510003103 57 322 17.0 24.0 0.00 0.00 0.00 36 1008.6
20260510002555 57 343 12.0 20.0 0.00 0.00 0.00 37 1008.5
20260510001537 58 336 15.0 21.0 0.00 0.00 0.00 35 1008.5
20260510001506 57 328 17.0 22.0 0.00 0.00 0.00 34 1008.4
20260510000104 57 334 10.0 22.0 0.00 0.00 0.00 36 1008.3
20260509234503 58 318 11.0 26.0 0.00 0.00 0.00 36 1008.1
20260509234210 58 311 15.0 25.0 0.00 0.00 0.00 35 1008.0
20260509233216 58 335 15.0 24.0 0.00 0.00 0.00 37 1007.9
20260509233102 58 330 16.0 25.0 0.00 0.00 0.00 36 1007.9
20260509232203 58 301 16.0 24.0 0.00 0.00 0.00 36 1007.8
20260509231503 58 301 16.0 24.0 0.00 0.00 0.00 37 1007.8
20260509231226 58 322 16.0 25.0 0.00 0.00 0.00 35 1007.8
20260509230103 58 325 14.0 25.0 0.00 0.00 0.00 34 1007.6
20260509224502 58 323 17.0 26.0 0.00 0.00 0.00 33 1007.4
20260509223927 59 314 16.0 24.0 0.00 0.00 0.00 33 1007.2
20260509223104 58 325 16.0 24.0 0.00 0.00 0.00 33 1007.1
20260509222900 59 336 16.0 26.0 0.00 0.00 0.00 33 1007.1
20260509221913 59 341 14.0 26.0 0.00 0.00 0.00 34 1007.1
20260509221503 59 326 16.0 27.0 0.00 0.00 0.00 37 1007.1
20260509220849 59 345 14.0 24.0 0.00 0.00 0.00 34 1007.0
20260509220105 59 306 12.0 25.0 0.00 0.00 0.00 37 1006.9
20260509215854 59 328 13.0 24.0 0.00 0.00 0.00 38 1006.9
20260509214848 58 338 16.0 23.0 0.00 0.00 0.00 36 1007.0
20260509214503 58 319 20.0 24.0 0.00 0.00 0.00 37 1007.0
20260509213846 59 323 13.0 23.0 0.00 0.00 0.00 35 1006.9
20260509213104 59 282 16.0 24.0 0.00 0.00 0.00 35 1006.8
20260509211717 58 321 19.0 28.0 0.00 0.00 0.00 35 1006.7